#timestamp,LO_Frequency,Hit,StdDev 
1560474015.5,286047003.2,N
1560474035.3,286047002.0,N
1560474055.1,286047002.6,N
1560474075.9,286047001.8,N
1560474095.7,286047002.0,N
1560474115.5,286047002.8,N
1560474135.4,286046999.8,N
1560474155.2,286047000.5,N
1560474175.1,286046999.3,N
1560474176.0,286046999.3,N
1560474195.8,286046999.5,N
1560474215.7,286046996.5,N
1560474235.5,286046998.8,N
1560474255.3,286046998.8,N
1560474275.2,286047000.7,N
1560474295.9,286046998.8,N
1560474315.7,286046998.6,N
1560474335.6,286046999.7,N
1560474355.4,286046999.7,N
1560474375.3,286047000.0,N
1560474395.1,286047002.4,N
1560474396.0,286047002.4,N
1560474415.8,286047001.8,N
1560474435.7,286047001.4,N
1560474455.5,286047000.4,N
1560474475.3,286046999.9,N
1560474495.2,286047000.4,N
1560474515.0,286047000.7,N
1560474515.9,286047000.7,N
1560474535.8,286046998.1,N
1560474555.6,286047000.3,N
1560474575.4,286047002.0,N
1560474595.3,286047002.3,N
1560474615.1,286047002.4,N
1560474635.9,286047001.9,N
1560474655.7,286047004.0,N
1560474675.5,286047001.5,N
1560474695.4,286046999.8,N
1560474715.2,286047004.0,N
1560474735.0,286046999.8,N
1560474735.9,286046999.8,N
1560474755.8,286047002.2,N
1560474775.6,286047001.9,N
1560474795.5,286047002.7,N
1560474815.3,286047002.3,N
1560474835.1,286047002.6,N
1560474855.9,286046999.7,N
1560474875.7,286047004.0,N
1560474895.5,286047002.2,N
1560474915.4,286047002.4,N
1560474935.2,286047002.5,N
1560474955.1,286047000.1,N
1560474956.0,286047000.1,N
1560474975.8,286047001.4,N
1560474995.6,286047001.7,N
1560475015.5,286047001.8,N
1560475035.3,286047003.0,N
1560475055.1,286047005.3,Y
1560475075.9,286047004.4,P
1560475095.7,286047000.2,N
1560475115.6,286046999.7,N
1560475135.4,286047000.2,N
1560475155.2,286047001.7,N
1560475175.1,286047003.8,N
1560475176.0,286047003.8,N
1560475195.8,286047001.5,N
1560475215.6,286047004.2,N
1560475235.5,286047002.2,N
1560475255.3,286047001.0,N
1560475275.1,286046998.4,N
1560475295.9,286047000.1,N
1560475315.7,286046999.8,N
1560475335.6,286046999.9,N
1560475355.4,286047000.1,N
1560475375.2,286047000.0,N
1560475395.1,286047002.3,N
1560475396.0,286047002.3,N
1560475415.8,286047004.3,N
1560475435.6,286047001.6,N
1560475455.5,286046999.7,N
1560475475.3,286047002.0,N
1560475495.2,286047003.6,N
1560475515.9,286047003.5,N
1560475535.7,286047002.0,N
1560475555.6,286046999.7,N
1560475575.4,286047002.3,N
1560475595.2,286047001.5,N
1560475615.1,286047004.0,N
1560475616.0,286047004.0,N
1560475635.8,286047003.4,N
1560475655.7,286047001.3,N
1560475675.5,286047003.9,N
1560475695.3,286047001.8,N
1560475715.2,286047003.1,N
1560475735.0,286047003.5,N
1560475735.9,286047003.5,N
1560475755.7,286047005.5,Y
1560475775.6,286047002.7,P
1560475795.4,286047000.2,N
1560475815.3,286047002.4,N
1560475835.1,286047000.1,N
1560475836.0,286047000.1,N
1560475855.8,286046999.8,N
1560475875.7,286047000.4,N
1560475895.5,286047000.1,N
1560475915.4,286047002.8,N
1560475935.2,286047002.3,N
1560475955.0,286046999.9,N
1560475955.9,286046999.9,N
1560475975.8,286047001.1,N
1560475995.6,286047000.8,N
1560476015.4,286047002.8,N
1560476035.3,286047001.6,N
1560476055.1,286047001.9,N
1560476075.9,286047003.5,Y
1560476095.7,286047001.6,P
1560476115.5,286047000.1,N
1560476135.4,286047001.2,N
1560476155.2,286046999.0,N
1560476175.0,286046999.4,N
1560476175.9,286046999.4,N
1560476195.8,286047000.6,N
1560476215.6,286047002.6,N
1560476235.5,286047002.6,N
1560476255.3,286047000.9,N
1560476275.1,286047001.2,N
1560476295.9,286047000.4,N
1560476315.7,286047002.4,N
1560476335.5,286047001.6,N
1560476355.4,286047001.4,N
1560476375.2,286047004.2,Y
1560476395.1,286047001.6,P
1560476396.0,286047001.6,P
1560476415.8,286047001.8,P
1560476435.6,286047001.7,Y
1560476455.5,286046998.2,P
1560476475.3,286046998.6,N
1560476495.2,286046999.5,N
1560476515.9,286046997.1,N
1560476535.7,286046997.3,N
1560476555.6,286046997.4,N
1560476575.4,286046997.4,N
1560476595.2,286046997.1,N
1560476615.1,286046997.5,N
1560476616.0,286046997.5,N
1560476635.8,286046995.9,Y
1560476655.7,286046999.2,P
1560476675.5,286046999.3,N
1560476695.3,286046996.9,P
1560476715.2,286046997.7,N
1560476735.0,286046996.7,Y
1560476735.9,286046996.7,P
1560476755.8,286046999.3,N
1560476775.6,286046998.7,N
1560476795.4,286046998.9,N
1560476815.3,286046998.6,N
1560476835.1,286046999.4,N
1560476855.8,286046999.3,N
1560476875.7,286046999.6,N
1560476895.5,286046996.8,Y
1560476915.4,286046998.9,P
1560476935.2,286047001.1,P
1560476955.0,286047001.1,N
1560476955.9,286047001.1,N
1560476975.8,286046998.7,N
1560476995.6,286047000.9,N
1560477015.4,286046998.5,N
1560477035.3,286046999.2,N
1560477055.1,286046999.1,N
1560477075.9,286046999.3,N
1560477095.7,286046999.2,N
1560477115.5,286046997.4,N
1560477135.4,286046998.8,N
1560477155.2,286047001.2,N
1560477175.0,286047000.5,N
1560477175.9,286047000.5,N
1560477195.8,286047000.4,N
1560477215.6,286047000.4,N
1560477235.5,286047001.1,N
1560477255.3,286047000.9,N
1560477275.1,286047002.0,N
1560477295.9,286047002.4,N
1560477315.7,286047002.0,N
1560477335.5,286047000.1,N
1560477355.4,286046999.9,N
1560477375.2,286047001.5,N
1560477395.1,286047002.0,N
1560477396.0,286047002.0,N
1560477415.8,286046998.2,N
1560477435.6,286047001.1,N
1560477455.5,286046998.9,N
1560477475.3,286046998.2,N
1560477495.1,286046998.9,N
1560477515.9,286046997.6,N
1560477535.7,286046999.2,N
1560477555.6,286046998.2,N
1560477575.4,286046996.6,N
1560477595.2,286046996.6,N
